Gastonia, NC

12:24 AM EDT on July 23, 2017 (GMT -0400)
Gastonia Municipal

Weather History for KAKH - March, 2013

Change the Weather History Date:

Wednesday, March 27, 2013

  Actual Average (KCLT) Record (KCLT)
Temperature  
Mean Temperature 44 °F -  
Max Temperature 54 °F 63 °F 85 °F (1950)
Min Temperature 34 °F 41 °F 19 °F (1955)
Degree Days  
Heating Degree Days 22    
Moisture  
Dew Point 21 °F    
Average Humidity 45    
Maximum Humidity 61    
Minimum Humidity 26    
Precipitation  
Precipitation 0.00 in - - ()
Sea Level Pressure  
Sea Level Pressure 30.22 in    
Wind  
Wind Speed 5 mph (North)    
Max Wind Speed 9 mph    
Max Gust Speed 23 mph    
Visibility 10 miles    
Events      
Averages and records for this station are not official NWS values.
T = Trace of Precipitation, MM = Missing Value Source: NWS Daily Summary

Daily Weather History Graph

Daily Weather History Graph

Search for Another Location

Airport or City:

Trip Planner

Search our weather history database for the weather conditions in past years. The results will help you decide how hot, cold, wet, or windy it might be!

Date:

Astronomy

Mar. 27, 2013 Rise Set
Actual Time 7:18 AM EDT 7:42 PM EDT
Civil Twilight 6:52 AM EDT 8:07 PM EDT
Nautical Twilight 6:22 AM EDT 8:37 PM EDT
Astronomical Twilight 5:52 AM EDT 9:07 PM EDT
Moon 8:21 PM EDT (3/27) 7:09 AM EDT (3/27)
Length of Visible Light 13h 15m
Length of Day
12h 24m
Full, 100% of the Moon is Illuminated
Mar 27
Full
Apr 3
Last Quarter
Apr 10
New
Apr 18
First Quarter
Apr 25
Full

Hourly Weather History & Observations

Time (EDT) Temp. Windchill Dew Point Humidity Pressure Visibility Wind Dir Wind Speed Gust Speed Precip Events Conditions
12:54 AM 36.0 °F 33.3 °F 21.9 °F 57% 30.20 in 10.0 mi Variable 3.5 mph - N/A   Clear
1:54 AM 35.1 °F - 21.9 °F 59% 30.20 in 10.0 mi Calm Calm - N/A   Clear
2:54 AM 35.1 °F 32.2 °F 21.9 °F 59% 30.19 in 10.0 mi NW 3.5 mph - N/A   Clear
3:54 AM 34.0 °F 31.0 °F 21.9 °F 61% 30.19 in 10.0 mi WNW 3.5 mph - N/A   Clear
4:54 AM 35.1 °F 32.2 °F 21.9 °F 59% 30.19 in 10.0 mi Variable 3.5 mph - N/A   Clear
5:54 AM 36.0 °F 32.1 °F 21.9 °F 57% 30.20 in 10.0 mi WNW 4.6 mph - N/A   Clear
6:54 AM 34.0 °F - 21.9 °F 61% 30.22 in 10.0 mi Calm Calm - N/A   Clear
7:54 AM 35.1 °F 32.2 °F 21.9 °F 59% 30.24 in 10.0 mi Variable 3.5 mph - N/A   Clear
8:54 AM 39.0 °F 35.7 °F 21.9 °F 50% 30.25 in 10.0 mi WNW 4.6 mph - N/A   Clear
9:54 AM 43.0 °F 38.8 °F 21.9 °F 43% 30.26 in 10.0 mi Variable 6.9 mph - N/A   Clear
10:54 AM 45.0 °F 41.8 °F 19.9 °F 37% 30.27 in 10.0 mi Variable 5.8 mph - N/A   Clear
11:54 AM 46.0 °F 42.5 °F 21.0 °F 37% 30.27 in 10.0 mi Variable 6.9 mph - N/A   Clear
12:54 PM 48.9 °F - 21.0 °F 33% 30.25 in 10.0 mi NNW 8.1 mph - N/A   Clear
1:54 PM 48.9 °F - 21.9 °F 35% 30.23 in 10.0 mi Variable 3.5 mph - N/A   Clear
2:54 PM 51.1 °F - 21.0 °F 31% 30.22 in 10.0 mi West 8.1 mph - N/A   Clear
3:54 PM 52.0 °F - 18.0 °F 26% 30.20 in 10.0 mi North 8.1 mph 23.0 mph N/A   Clear
4:54 PM 53.1 °F - 19.0 °F 26% 30.19 in 10.0 mi Variable 6.9 mph - N/A   Clear
5:54 PM 53.1 °F - 19.9 °F 27% 30.18 in 10.0 mi North 5.8 mph - N/A   Clear
6:54 PM 50.0 °F - 21.0 °F 32% 30.20 in 10.0 mi North 9.2 mph - N/A   Clear
7:54 PM 46.0 °F 41.4 °F 19.9 °F 35% 30.22 in 10.0 mi NE 9.2 mph - N/A   Clear
8:54 PM 44.1 °F 40.1 °F 21.0 °F 40% 30.24 in 10.0 mi NE 6.9 mph - N/A   Clear
9:54 PM 41.0 °F 35.8 °F 21.0 °F 45% 30.25 in 10.0 mi NE 8.1 mph - N/A   Clear
10:54 PM 37.9 °F 32.1 °F 21.0 °F 51% 30.26 in 10.0 mi ENE 8.1 mph - N/A   Clear
11:54 PM 37.0 °F 31.6 °F 21.0 °F 52% 30.27 in 10.0 mi ENE 6.9 mph - N/A   Clear